Location: Tel Aviv
(32.0670°N, 34.7670°E)
Time: 12:35:31
(UTC+03:00)

Transit 2A - Pass Details

Date: 29 January 2022
Orbit: 598 x 960 km, 66.7° (Epoch: 20 May)

Event Time Altitude Azimuth Distance (km) Brightness Sun altitude
Rises 10:54:35 0° 243° (WSW) 3,496 9.5 38.1°
Reaches altitude 10° 10:57:38 10° 258° (WSW) 2,607 8.8 38.2°
Maximum altitude 11:02:17 22° 308° (NW) 1,929 7.9 38.5°
Drops below altitude 10° 11:07:06 10° 357° (N) 2,695 8.5 38.8°
Sets 11:10:19 0° 12° (NNE) 3,646 9.1 39.0°
